User: anonymous   Login
Location: Fort Hays State University
(38.8712°N, 99.3432°W)
Time: 10:54:13
(UTC-05:00)
Language:

ALOS - Orbit

View from above orbital plane
View from above orbital plane
View from above satellite
View from above satellite

Ground track
Ground track

The orbit data is extracted from the following two-line orbital elements,

1 28931U 06002A   15146.58157247  .00000446  00000-0  98116-4 0  9990
2 28931 097.9332 196.8465 0002001 121.8185 238.3212 14.61863497497488
Epoch (UTC): 26 May 2015 13:57:27
Eccentricity: 0.0002001
inclination: 97.9332°
perigee height: 686 km
apogee height: 688 km
right ascension of ascending node: 196.8465°
argument of perigee: 121.8185°
revolutions per day: 14.61863497
mean anomaly at epoch: 238.3212°
orbit number at epoch: 49748

The dashed part of the orbit path shows where the satellite is in the earth's shadow,  

DLR